TIANLIAN 2-05

Last updated on Thu Jul 03 2025 00:02:49 GMT+0000 (Coordinated Universal Time)

1 63662U 25084A 25183.57048791 .00000133 00000+0 00000+0 0 9997 2 63662 5.3357 283.7137 0001420 186.0682 36.7597 1.00271755 877
UTC large
Height (km)
Speed (km/s)
/
Latitude / Longitude
Inclination (degrees)
Orbital Period (minutes)
Azimuth
Elevation
Range (km)
Doppler Factor

Next 0 passes for location: London (51.5072 / 0.1276)

Sorry there are no passes over London.